TimeEDT,TemperatureF,Dew PointF,Humidity,Sea Level PressureIn,VisibilityMPH,Wind Direction,Wind SpeedMPH,Gust SpeedMPH,PrecipitationIn,Events,Conditions,WindDirDegrees,DateUTC
12:00 AM,75.2,64.4,69,30.12,6.2,NE,5.8,-,N/A,,Scattered Clouds,50,2013-04-25 04:00:00
1:00 AM,73.4,64.4,73,30.11,6.2,NNE,6.9,-,N/A,,Scattered Clouds,30,2013-04-25 05:00:00
2:00 AM,74,64,65,30.09,9,ENE,5.8,,,,Scattered Clouds,60,2013-04-25 06:00:00
2:00 AM,73.4,64.4,73,30.09,6.2,ENE,5.8,-,N/A,,Partly Cloudy,60,2013-04-25 06:00:00
3:00 AM,73.4,62.6,69,30.07,6.2,ENE,6.9,-,N/A,,Scattered Clouds,60,2013-04-25 07:00:00
4:00 AM,73.4,62.6,69,30.07,6.2,NE,3.5,-,N/A,,Scattered Clouds,50,2013-04-25 08:00:00
5:00 AM,72,63,65,30.07,9,ENE,3.5,,,,Scattered Clouds,60,2013-04-25 09:00:00
5:00 AM,71.6,60.8,69,30.07,6.2,ENE,3.5,-,N/A,,Partly Cloudy,60,2013-04-25 09:00:00
6:00 AM,73.4,60.8,65,30.08,6.2,ENE,3.5,-,N/A,,Partly Cloudy,60,2013-04-25 10:00:00
7:00 AM,71.6,60.8,69,30.09,6.2,NE,3.5,-,N/A,,Partly Cloudy,40,2013-04-25 11:00:00
8:00 AM,74,69,81,30.12,9,ENE,4.6,,,,Scattered Clouds,60,2013-04-25 12:00:00
8:00 AM,75.2,69.8,83,30.12,6.2,ENE,4.6,-,N/A,,Partly Cloudy,60,2013-04-25 12:00:00
9:00 AM,75.2,60.8,61,30.14,6.2,ENE,5.8,-,N/A,,Scattered Clouds,70,2013-04-25 13:00:00
10:00 AM,75.2,60.8,61,30.16,6.2,ENE,10.4,-,N/A,,Scattered Clouds,60,2013-04-25 14:00:00
11:00 AM,79,62,46,30.17,9,East,9.2,,,,Partly Cloudy,80,2013-04-25 15:00:00
11:00 AM,78.8,62.6,57,30.16,6.2,East,9.2,-,N/A,,Scattered Clouds,80,2013-04-25 15:00:00
12:00 PM,78.8,62.6,57,30.16,6.2,ENE,6.9,-,N/A,,Scattered Clouds,60,2013-04-25 16:00:00
1:00 PM,80.6,62.6,54,30.15,6.2,ENE,9.2,-,N/A,,Partly Cloudy,70,2013-04-25 17:00:00
2:00 PM,80.6,62.6,54,30.14,6.2,NNE,9.2,-,N/A,,Scattered Clouds,30,2013-04-25 18:00:00
3:00 PM,80.6,62.6,54,30.14,6.2,ENE,9.2,-,N/A,,Scattered Clouds,60,2013-04-25 19:00:00
4:00 PM,80.6,60.8,51,30.13,6.2,NE,11.5,-,N/A,,Scattered Clouds,40,2013-04-25 20:00:00
5:00 PM,80,62,44,30.14,9,NE,11.5,,,,Scattered Clouds,50,2013-04-25 21:00:00
5:00 PM,78.8,62.6,57,30.14,6.2,NE,11.5,-,N/A,,Partly Cloudy,50,2013-04-25 21:00:00
6:00 PM,78.8,62.6,57,30.14,6.2,NE,13.8,-,N/A,,Scattered Clouds,50,2013-04-25 22:00:00
7:00 PM,77.0,64.4,65,30.14,6.2,NE,11.5,-,N/A,,Scattered Clouds,40,2013-04-25 23:00:00
8:00 PM,76,64,58,30.15,8,NE,9.2,,,,Partly Cloudy,40,2013-04-26 00:00:00
8:00 PM,75.2,64.4,69,30.15,6.2,NE,9.2,-,N/A,,Partly Cloudy,40,2013-04-26 00:00:00
9:00 PM,73.4,62.6,69,30.17,6.2,NE,6.9,-,N/A,,Partly Cloudy,50,2013-04-26 01:00:00
10:00 PM,73.4,62.6,69,30.18,6.2,NE,11.5,-,N/A,,Partly Cloudy,50,2013-04-26 02:00:00
11:00 PM,73.4,62.6,69,30.19,6.2,ENE,11.5,-,N/A,,Partly Cloudy,60,2013-04-26 03:00:00